Temp
8 8 8 8 8 8 8 8 9 9 10 10 11 11 11 11 12 12 13 13 13 13 13 14 14 14 15 16 18 23 24 24 24 24 24 24 24 24 24 25 25 26 27 28 28 27 29
8 8 8 8 8 8 8 8 9 9 9 10 11 11 11 11 11 12 12 13 13 13 13 13 14 14 14 14 21 23 23 24 24 24 24 24 24 24 24 25 26 27 27 26 27 27 27
8 8 8 8 8 8 8 8 9 8 9 9 9 11 11 11 11 11 12 13 13 13 13 13 13 13 13 15 20 22 21 22 24 24 23 24 24 24 23 24 26 26 27 24 26 27 27
8 8 8 8 7 8 8 8 8 8 8 9 9 10 11 10 10 11 12 12 13 13 13 13 12 12 12 17 20 20 22 22 23 24 25 25 25 23 24 23 24 26 24 24 25 25 25
8 8 8 7 7 7 7 7 8 8 8 8 8 9 10 10 10 10 11 12 12 12 12 12 12 12 12 18 16 21 20 21 23 24 24 25 24 23 23 22 21 22 21 22 24 24 26
7 7 7 7 7 7 7 7 7 8 8 8 8 9 9 9 10 10 10 12 11 11 11 11 12 13 14 16 20 21 22 21 22 23 23 22 19 19 19 19 21 22 22 23 23 26 24
7 7 7 7 7 7 7 7 7 7 7 8 8 8 8 8 9 10 10 11 11 11 11 13 13 14 18 19 21 21 21 22 21 20 18 20 18 17 19 20 23 23 23 24 23 26 27
6 7 7 7 7 7 7 7 7 7 7 7 8 8 8 8 8 8 10 11 13 14 12 13 14 14 17 18 17 20 22 20 19 19 19 19 18 19 21 21 21 22 21 21 23 24 26
6 6 6 6 6 6 6 7 7 7 7 7 7 8 8 8 8 8 10 11 11 14 13 14 13 14 16 17 17 18 20 21 21 19 19 19 20 21 20 21 21 21 21 22 23 25 25
6 6 6 6 6 6 6 6 6 6 6 7 7 8 8 7 7 8 10 10 11 10 11 15 12 14 16 16 16 20 21 21 20 19 19 19 21 21 20 21 22 21 22 24 24 25 21
5 5 5 6 6 6 5 6 6 6 6 6 7 7 7 7 8 8 10 10 10 10 12 16 16 17 17 17 19 18 21 20 20 19 20 20 19 20 20 21 22 22 24 24 24 23 23
5 5 5 6 5 5 5 6 6 6 6 6 7 7 7 7 7 9 10 9 9 9 12 16 17 15 15 16 18 19 20 20 21 20 20 21 22 21 22 23 23 23 23 22 22 21 19
5 5 5 5 5 5 5 5 6 6 6 6 7 7 7 7 7 7 8 9 9 10 11 14 16 17 17 16 17 18 19 18 18 17 18 20 20 21 23 22 22 22 21 19 20 19 20
5 5 5 5 5 5 5 5 6 6 6 6 6 7 7 7 7 8 8 9 10 11 11 16 17 17 16 18 17 19 19 18 20 20 19 19 18 21 22 22 21 23 23 19 19 17 21
5 5 5 5 5 5 5 5 5 6 6 6 6 6 7 7 7 8 8 10 10 11 14 15 17 16 16 18 18 19 19 19 20 21 20 19 20 22 23 23 25 21 22 23 20 19 14
4 5 5 5 5 5 5 5 5 6 6 6 6 6 7 7 7 7 7 8 8 11 14 16 16 17 15 17 18 17 19 20 20 21 22 20 20 22 23 24 24 23 23 21 17 19 19
4 4 4 4 5 5 5 5 5 6 6 6 6 7 7 7 7 7 7 8 9 12 12 15 15 16 17 17 18 17 19 20 20 20 21 21 20 20 22 23 23 21 21 20 21 18 19
4 4 4 4 5 5 5 5 5 6 6 7 6 7 5 6 6 6 7 7 10 12 13 12 14 16 18 18 18 17 18 20 21 21 19 21 18 18 22 24 25 24 23 23 20 18 19
4 4 4 4 4 5 5 5 5 6 7 7 6 5 5 7 5 6 6 8 9 11 13 11 13 14 16 18 17 18 19 21 20 21 20 21 17 14 18 20 20 22 23 22 20 17 19
4 4 4 4 4 4 4 5 5 7 7 6 5 6 6 6 5 7 7 7 9 11 13 13 13 14 15 16 17 17 18 19 20 20 19 20 20 19 20 21 21 20 22 22 21 19 18
4 4 4 4 4 4 5 5 6 7 7 6 5 5 6 6 6 6 7 8 9 10 12 13 12 13 16 15 16 16 15 17 19 19 18 20 18 19 20 21 21 22 21 22 21 21 20
3 4 4 4 4 4 4 5 6 7 6 6 4 5 4 6 7 7 7 8 8 10 11 12 12 13 14 15 16 14 16 16 17 18 19 19 16 18 18 18 20 20 20 22 22 22 21
3 3 4 4 4 4 5 6 6 7 6 5 4 6 7 6 7 6 7 7 9 10 10 11 13 14 14 15 17 17 17 15 15 15 17 17 18 15 17 18 18 17 19 20 21 22 22
3 3 3 3 4 5 5 6 6 6 6 6 6 4 6 6 6 7 7 8 8 10 10 11 12 13 15 15 13 13 12 13 14 14 14 15 17 16 14 16 15 18 19 21 20 21 22
3 3 3 3 5 6 6 7 6 6 5 7 8 6 5 5 6 7 7 8 9 10 9 9 9 9 13 14 12 11 11 12 13 14 15 13 15 12 14 15 15 16 17 19 19 20 20
3 3 3 3 5 6 6 7 6 6 6 6 7 8 5 5 4 8 7 8 7 7 7 8 9 10 10 11 11 12 13 12 12 13 14 13 14 13 11 14 16 16 18 19 19 17 17
3 3 3 3 5 6 6 6 6 5 5 6 7 9 5 3 4 8 5 7 7 6 7 8 8 9 10 10 11 11 12 12 12 12 14 14 13 13 12 13 14 15 18 19 17 17 18
2 3 3 3 6 6 6 6 5 5 5 7 6 8 7 2 2 5 6 5 4 5 6 5 7 8 9 10 11 10 10 12 11 12 12 12 12 12 11 13 14 16 18 18 17 17 17
3 3 3 5 6 6 6 6 6 6 6 7 5 6 8 2 2 3 4 5 6 6 6 5 6 5 6 10 10 10 11 11 11 12 14 12 12 11 12 12 14 16 18 16 16 16 16
Height
791 791 790 789 789 789 789 788 789 788 788 789 789 791 790 791 792 794 797 800 803 806 810 810 812 811 813 809 797 787 789 788 788 788 787 787 789 791 797 789 785 786 779 775 772 774 772
786 787 786 786 785 785 784 784 784 784 784 784 785 786 787 787 788 789 792 796 799 802 807 808 810 810 812 810 788 787 788 788 787 787 785 786 785 784 789 786 788 778 778 778 772 776 775
781 782 782 781 781 780 780 779 779 779 780 780 780 782 784 783 785 785 788 792 796 799 802 806 808 807 806 793 785 784 786 786 786 786 785 783 782 783 787 787 777 777 785 782 776 774 776
775 776 777 777 776 775 775 775 775 774 776 777 777 777 778 781 782 783 784 787 793 795 799 803 806 806 795 785 785 782 782 782 783 784 784 783 782 782 785 782 783 786 790 804 779 774 773
770 771 772 772 772 771 771 770 771 771 771 772 773 773 774 776 776 778 779 785 791 793 797 801 803 804 792 778 776 774 778 781 780 780 781 781 781 785 785 799 809 800 814 807 794 773 772
764 765 766 766 767 767 766 766 766 766 766 767 768 768 770 771 774 777 779 781 786 790 797 799 799 805 784 770 768 767 770 776 779 778 781 784 790 798 801 808 819 808 807 801 799 774 776
758 759 760 761 761 761 761 761 762 761 761 761 762 764 765 767 771 773 779 780 781 791 786 773 775 771 761 756 761 761 763 770 776 781 794 787 802 807 795 789 786 790 794 796 787 769 771
752 753 754 755 755 755 755 756 756 756 756 756 757 759 761 762 765 768 773 768 761 766 776 772 768 774 759 760 771 757 762 769 776 784 787 793 792 785 782 784 789 791 799 803 785 771 772
745 746 747 748 749 749 749 750 750 750 750 750 752 753 757 761 765 767 764 765 769 764 764 756 754 760 761 764 763 757 756 758 764 779 781 782 775 773 784 787 792 792 797 796 791 771 768
737 738 739 741 741 742 742 742 742 742 743 744 746 748 753 760 765 762 757 763 766 769 768 743 751 740 753 757 755 747 749 754 764 770 778 780 765 774 782 781 780 792 776 779 782 782 803
730 731 732 733 733 734 734 734 734 735 735 737 739 741 746 752 752 751 753 760 765 765 747 723 722 725 727 741 734 739 744 748 757 763 769 760 765 769 774 765 769 773 763 773 773 786 786
723 724 725 725 725 725 726 726 726 727 727 729 731 734 739 745 749 748 751 757 768 767 727 709 701 715 724 727 729 731 736 742 744 759 753 748 742 751 748 753 757 760 767 774 779 789 807
716 716 717 716 716 717 717 717 717 717 718 721 724 727 731 736 733 744 751 746 748 729 728 710 701 696 697 716 730 729 732 742 748 766 760 755 753 744 738 751 755 759 778 811 811 816 794
709 709 709 708 708 708 707 707 707 707 709 712 715 721 720 724 733 739 745 733 711 706 719 692 691 695 702 703 718 717 724 736 733 731 746 757 763 738 731 739 751 754 756 787 807 816 781
703 702 701 700 700 698 698 697 697 697 699 703 710 712 714 716 725 734 737 711 698 705 697 691 692 696 700 695 698 711 711 714 711 714 730 743 739 716 720 723 730 751 758 741 773 781 809
696 695 693 691 689 688 687 686 686 687 689 695 699 704 698 708 719 730 728 709 709 697 690 686 684 680 692 686 695 706 703 694 698 698 705 718 736 712 714 718 720 726 731 764 777 786 794
690 687 684 681 679 677 675 673 673 675 679 687 694 698 689 705 717 723 703 708 705 690 692 685 680 674 673 679 681 692 686 682 690 695 701 712 718 721 713 715 715 733 739 745 746 763 772
682 679 675 672 668 665 662 660 659 661 668 677 681 686 685 695 705 710 704 707 694 682 686 690 679 672 665 666 675 683 677 672 667 680 701 698 720 730 708 694 693 700 707 714 741 758 752
674 669 665 661 657 653 650 647 645 645 652 663 671 682 681 681 694 700 700 693 690 680 678 689 679 672 658 659 674 670 668 663 669 675 686 692 715 745 726 716 703 699 704 713 727 743 744
666 661 655 651 645 641 637 633 630 631 639 654 668 672 668 677 686 689 693 690 683 683 672 675 670 667 666 664 661 668 666 667 667 671 676 683 692 698 697 683 700 710 701 704 714 731 732
658 652 645 638 632 627 623 621 619 623 631 641 653 656 650 661 677 676 682 681 673 674 669 662 666 669 663 668 666 666 674 671 666 668 677 681 692 691 682 687 686 688 695 696 702 694 716
651 643 635 627 618 614 612 611 612 617 626 634 641 643 649 650 660 672 674 673 674 667 660 654 660 658 663 658 652 669 674 674 671 668 674 673 691 689 690 691 687 694 690 682 681 685 692
645 637 628 617 607 602 600 601 604 611 618 624 631 631 634 653 661 669 665 667 662 663 664 657 649 651 656 651 652 655 657 665 668 671 671 677 679 696 684 688 697 703 666 682 677 673 676
641 630 619 607 594 587 587 591 595 604 612 618 619 626 634 653 655 652 657 661 660 656 659 658 654 651 650 653 658 662 666 665 666 671 678 678 675 686 693 694 700 660 663 662 669 666 667
635 624 613 599 584 574 573 581 588 602 610 615 620 621 630 649 647 651 655 658 658 653 659 665 660 661 656 655 660 663 673 671 664 661 664 679 675 693 683 684 678 663 659 656 664 655 658
630 618 606 594 582 575 576 579 586 599 610 615 620 619 625 639 654 645 654 655 663 668 668 662 654 654 662 652 659 650 649 659 666 660 657 669 675 678 695 676 669 653 641 641 650 663 653
627 615 603 593 585 583 583 586 583 596 606 616 620 623 629 649 649 645 657 656 659 662 660 655 653 657 652 649 649 650 646 649 655 655 652 652 661 666 681 673 663 649 634 634 668 655 639
625 614 601 591 588 587 590 596 601 604 611 618 625 627 631 647 650 648 649 654 661 660 661 662 655 648 653 647 642 648 649 641 645 643 647 649 657 667 675 670 662 636 635 641 636 638 638
626 616 603 594 591 591 594 599 604 610 616 621 626 631 634 642 653 651 650 650 650 650 658 659 664 668 661 644 640 635 639 637 635 635 628 643 641 655 657 657 641 634 630 631 632 639 641
Wind_Speed
15 14 13 13 16 17 17 19 21 22 21 19 21 17 12 13 27 30 27 25 23 22 20 17 15 13 10 4 9 20 13 4 5 5 7 2 3 4 4 3 5 4 4 2 2 5 4
14 14 14 15 15 16 17 19 21 23 23 23 20 22 16 13 17 32 28 25 23 22 21 17 14 11 4 9 15 18 19 10 9 7 7 3 5 4 5 4 2 4 1 2 2 3 3
13 14 15 16 18 17 18 20 20 22 24 25 22 21 22 13 15 18 30 25 23 21 20 17 13 8 6 17 8 10 6 9 13 12 4 5 1 3 3 5 4 2 3 6 3 3 5
15 15 15 16 17 19 19 20 19 20 23 25 25 21 22 19 13 18 29 25 21 19 18 15 11 5 7 15 29 35 22 23 12 9 4 4 3 2 2 5 6 1 4 1 6 5 7
17 16 16 16 17 18 18 20 20 19 21 25 26 24 22 25 18 17 16 26 20 17 16 12 6 6 8 10 16 37 25 17 17 11 3 2 3 1 3 3 4 3 3 4 8 9 4
18 17 17 17 18 18 18 19 21 21 20 24 27 27 24 24 26 17 19 27 16 13 14 6 8 2 8 8 11 26 33 25 7 4 0 1 3 2 2 4 9 6 4 4 7 3 8
21 18 18 18 18 18 18 19 20 21 22 21 26 29 27 24 25 15 14 13 12 6 17 10 9 7 7 21 11 11 25 18 7 4 7 4 4 8 13 13 3 5 3 3 5 5 4
21 20 19 19 20 18 19 20 20 21 23 23 23 29 30 27 25 24 21 7 20 8 6 23 16 20 37 3 7 7 18 11 11 14 7 3 14 12 11 5 7 8 6 7 11 9 6
22 21 20 20 20 20 21 21 22 23 25 25 25 25 31 29 23 19 24 28 19 10 4 8 27 16 9 8 10 12 14 13 17 11 16 15 4 17 10 7 9 9 11 7 9 1 2
22 22 21 21 21 21 23 23 26 27 26 27 28 26 29 25 14 21 24 26 24 16 4 10 11 11 22 4 8 19 12 12 6 19 9 13 16 6 11 13 13 14 10 12 8 3 4
22 22 21 22 23 25 25 27 29 29 28 28 29 29 29 32 10 16 20 20 16 7 7 10 24 10 19 21 7 15 21 8 18 10 11 12 13 22 19 17 14 8 9 9 5 3 3
21 21 22 24 25 26 28 28 28 30 29 29 29 29 29 31 32 29 23 22 9 7 8 7 16 20 15 23 16 8 18 3 6 7 18 18 8 12 9 16 14 7 4 4 3 3 7
20 20 23 25 27 29 29 30 30 31 29 30 30 31 32 33 25 31 25 12 7 8 4 6 15 24 32 21 28 11 24 19 13 11 18 7 23 10 3 6 14 7 9 0 2 3 11
19 21 24 26 28 30 30 31 31 32 33 34 34 31 37 42 36 19 25 8 11 11 10 6 9 23 26 24 24 22 23 23 23 22 12 16 11 25 9 15 8 15 15 6 9 5 10
20 22 25 26 26 29 30 32 33 32 33 33 30 32 34 40 36 33 6 15 10 8 16 9 12 21 18 20 15 28 21 31 30 25 15 15 16 6 15 6 20 8 11 12 5 3 3
20 22 25 28 30 31 33 33 32 32 34 30 30 20 31 39 34 20 8 11 7 10 11 13 19 18 20 28 18 27 29 28 29 31 18 5 5 9 20 7 14 13 7 5 2 5 5
21 24 26 28 29 29 32 32 32 32 33 29 23 8 17 32 28 7 12 6 9 16 11 9 9 12 21 23 25 31 22 12 30 28 25 5 5 5 11 18 21 5 9 5 5 7 8
23 25 27 28 28 32 34 33 32 34 32 35 8 9 22 37 11 5 11 8 5 17 13 11 3 7 14 21 25 23 29 36 21 24 33 23 4 5 21 23 23 23 24 25 11 6 9
25 27 28 29 32 32 32 34 35 32 37 32 7 2 24 32 11 12 3 8 10 13 27 8 7 13 9 16 17 15 24 20 7 26 26 21 7 2 4 6 7 26 19 11 4 4 14
27 30 30 30 33 32 31 30 29 26 46 25 5 5 5 7 2 16 11 10 12 14 16 22 7 12 15 13 7 7 18 10 19 15 19 18 16 20 21 18 9 12 23 22 20 13 7
30 33 33 38 36 32 27 28 22 31 52 21 4 5 4 11 12 16 13 5 15 12 20 15 14 18 18 11 14 16 3 1 10 16 12 16 23 23 28 12 10 16 19 28 27 29 20
32 34 37 41 40 30 25 23 23 36 53 7 5 5 3 10 7 17 15 14 10 14 8 18 20 22 13 18 18 13 14 9 8 9 22 16 13 21 24 12 20 14 10 28 33 28 27
34 35 37 41 35 28 25 21 31 42 47 3 5 2 6 10 12 10 13 11 21 17 9 14 31 12 13 16 9 8 15 2 5 4 8 14 17 4 26 19 8 17 35 16 18 28 28
34 36 37 42 38 25 25 24 39 45 48 14 5 4 5 4 9 15 12 18 11 12 20 8 12 22 11 5 6 5 4 5 6 8 4 6 16 11 4 7 20 19 9 29 22 18 20
37 38 38 42 35 23 21 24 41 48 33 24 4 4 3 4 5 8 9 13 14 15 14 12 14 10 10 10 2 3 1 1 8 12 16 9 10 3 7 14 5 12 10 22 18 30 13
39 41 42 41 30 2 15 7 51 50 25 20 8 9 4 5 2 6 3 5 4 5 2 6 7 11 4 5 7 6 5 5 6 4 18 19 16 7 3 8 15 4 13 17 11 20 10
39 39 41 36 16 2 15 14 23 47 26 11 8 9 6 4 2 3 4 6 4 3 1 2 0 6 9 3 9 6 7 9 7 6 6 15 13 15 7 5 6 7 6 15 14 7 10
38 40 42 26 7 2 14 24 32 38 32 11 9 8 6 3 2 4 2 5 3 2 4 2 1 4 3 5 4 4 4 7 5 6 7 5 8 5 3 7 10 5 6 14 5 3 4
37 38 40 18 8 2 16 18 26 34 40 19 6 10 10 5 3 1 2 2 2 6 4 4 2 3 4 1 4 2 3 4 5 5 7 5 6 6 6 5 2 3 3 5 6 7 3
Wind_Direction
293 300 302 300 300 295 288 283 280 284 287 283 269 282 297 322 261 263 258 255 251 251 255 260 273 291 315 235 242 253 307 272 237 251 255 246 279 202 237 242 309 202 248 174 59 185 194
286 290 294 296 302 302 297 288 283 278 280 285 281 267 282 296 316 255 257 254 249 245 249 254 263 280 261 247 256 262 266 244 247 270 270 250 238 235 268 258 198 309 240 310 299 195 252
278 283 287 294 299 298 296 302 293 275 274 279 284 273 262 286 301 289 257 249 247 237 240 245 255 267 244 236 249 230 215 261 270 266 251 8 242 117 4 299 313 220 281 339 247 225 234
270 276 279 286 291 296 294 299 300 283 269 272 279 280 262 264 290 315 251 244 243 234 232 235 245 255 245 253 263 261 257 273 257 266 233 20 3 118 172 304 337 256 75 84 279 205 244
265 270 274 276 284 290 290 290 296 295 272 268 272 276 279 255 273 287 286 240 230 224 221 221 230 214 265 264 234 242 243 242 253 246 246 354 35 176 1 96 358 333 221 199 303 211 175
261 265 270 275 280 284 288 288 289 291 290 266 267 274 273 271 256 285 281 238 199 195 201 200 238 266 254 238 218 231 229 225 214 202 13 105 57 137 55 121 213 209 210 233 234 257 201
260 260 266 272 278 279 280 284 281 281 284 283 263 267 269 270 257 258 269 183 132 205 203 201 186 224 276 242 226 223 205 191 182 147 170 208 168 196 204 205 165 189 197 243 267 248 200
262 261 260 266 275 275 281 280 279 282 279 281 273 260 263 268 270 250 244 235 188 162 207 229 247 222 253 311 321 248 205 175 180 204 169 227 225 211 217 196 213 254 261 262 285 246 180
261 261 261 267 271 273 279 275 272 281 279 279 275 263 257 260 265 242 225 228 257 259 253 193 215 218 220 206 236 250 193 186 197 185 194 209 228 188 206 210 212 232 225 235 229 302 292
264 262 263 268 271 272 279 273 274 282 277 271 271 267 249 243 245 231 216 220 244 268 255 219 190 231 212 193 256 212 224 178 199 208 175 236 231 199 209 225 190 223 199 231 232 268 237
265 265 265 269 272 274 280 277 276 278 277 270 264 261 246 220 215 196 232 223 225 238 228 212 198 173 179 196 116 209 202 174 199 169 168 216 181 202 223 219 207 221 184 199 169 162 339
268 268 270 273 276 275 280 281 276 278 274 266 262 254 243 218 226 235 214 199 188 233 227 243 164 178 153 199 206 148 188 217 173 201 216 216 180 196 216 209 204 177 79 54 62 113 255
270 272 276 277 277 276 279 279 278 280 270 265 262 251 233 213 225 227 225 168 208 208 120 226 182 172 188 187 197 177 187 191 178 189 220 203 239 251 195 164 215 156 128 242 254 203 242
275 279 279 278 276 277 279 281 277 277 268 264 257 248 230 215 223 214 194 211 218 186 192 255 197 180 190 174 194 198 183 197 208 196 192 205 215 215 200 210 173 193 183 176 182 199 246
283 282 280 281 279 280 286 283 272 271 265 261 247 238 220 213 216 218 219 223 204 189 207 190 206 174 196 192 174 200 193 198 199 198 194 199 227 177 202 185 187 193 197 188 102 350 50
289 286 285 285 285 285 283 285 270 267 264 253 223 222 213 206 201 203 234 233 194 183 266 226 191 185 187 194 188 190 199 206 207 203 200 206 221 200 200 149 212 198 149 159 139 186 247
295 291 289 290 287 286 289 281 274 263 259 237 205 220 195 191 177 209 238 217 206 227 214 227 237 194 198 187 195 190 201 196 203 201 206 207 162 228 153 197 191 133 188 188 187 181 204
304 301 296 294 294 291 289 285 278 263 248 205 186 219 171 160 188 202 228 180 264 228 217 259 245 241 204 187 193 196 208 204 197 192 197 204 159 182 204 212 203 201 201 196 204 210 226
313 310 306 298 296 292 284 284 277 256 212 180 179 170 177 162 182 213 272 212 207 230 228 217 236 223 247 192 200 194 215 214 211 190 194 192 204 94 3 296 234 212 208 198 159 107 215
315 314 311 303 299 294 287 279 275 232 191 166 146 175 167 164 167 196 196 211 198 231 238 214 235 254 232 235 168 214 228 193 231 204 195 187 211 214 212 216 156 197 208 206 203 216 183
318 317 316 312 304 299 288 282 259 205 182 154 162 186 177 170 201 194 191 214 211 221 210 201 221 241 219 207 211 234 278 252 207 206 202 197 216 219 238 239 199 206 210 209 212 220 206
325 322 320 315 311 299 282 276 225 195 180 143 153 156 161 179 160 195 196 209 226 203 220 219 219 210 227 214 206 187 218 217 228 194 209 219 227 224 242 227 242 251 242 217 218 219 230
331 324 320 323 314 294 276 254 205 193 175 131 191 175 139 139 166 176 203 195 214 216 269 262 220 199 220 226 228 221 203 119 163 115 183 212 214 168 235 220 223 245 238 237 227 223 225
333 331 327 330 327 287 265 226 197 189 181 150 185 118 126 163 168 197 189 208 211 196 225 261 252 211 206 168 102 47 54 190 176 174 197 221 207 201 229 170 225 249 227 234 242 237 227
338 336 337 336 338 299 237 207 189 182 167 163 178 124 118 134 170 159 152 183 220 231 238 244 273 275 275 250 162 142 57 308 226 231 210 243 239 188 210 207 317 229 209 201 206 239 218
341 341 340 343 351 30 165 190 184 170 145 145 123 104 104 112 244 109 150 144 177 183 202 240 250 261 319 207 218 211 182 141 205 233 204 200 219 214 158 199 211 268 177 198 184 242 173
346 346 342 344 345 202 146 146 152 155 147 120 97 132 87 107 278 129 150 192 163 158 200 229 222 207 164 208 208 195 204 177 174 188 169 192 196 215 197 232 275 251 238 144 173 236 165
351 352 348 347 345 162 175 161 161 175 163 141 103 119 123 108 343 31 34 140 122 149 152 341 5 316 142 222 226 168 191 203 149 175 164 161 148 184 145 200 251 220 181 178 161 85 136
357 358 4 19 13 128 182 186 184 186 190 185 90 105 113 80 192 339 283 259 217 174 144 144 213 50 290 231 224 146 187 175 173 208 166 183 181 150 188 203 260 282 219 153 127 138 203